"TOA5","MOW","CPU:UNC_MeetingWaters","DataHourly"
"TIMESTAMP","SondeTempC","SpCond","DOSat","DOmg","pH","Turb","BattVolt_Min"
"TS","","","","","","",""
"","Smp","Smp","Smp","Smp","Smp","Smp","Min"
"2008-07-01 11:00:00",22.8199996948,0.0,6.67999982834,10.8999996185,10.0,99.1999969482,14.0900001526
"2008-07-01 12:00:00",23.6499996185,0.0,6.46000003815,23.5,8.80000019073,100.099998474,13.3900003433
"2008-07-01 13:00:00",23.75,0.0,6.51000022888,21.0,8.5,109.699996948,13.8999996185
"2008-07-01 14:00:00",24.8799991608,0.0,6.40000009537,27.2999992371,8.80000019073,115.5,13.8999996185
"2008-07-01 15:00:00",23.8899993896,0.0,6.46000003815,23.3999996185,18.1000003815,101.0,13.7700004578
"2008-07-01 16:00:00",23.8099994659,0.0,6.46999979019,23.0,8.69999980927,99.3000030518,12.9499998093
"2008-07-01 17:00:00",23.7700004578,0.0,6.42999982834,25.1000003815,8.30000019073,97.9000015259,12.7899999619
"2008-07-01 18:00:00",23.5,0.0,6.44000005722,24.6000003815,8.60000038147,96.4000015259,12.6000003815
"2008-07-01 19:00:00",23.1900005341,0.0,6.48999977112,22.0,9.10000038147,94.5,12.529999733
"2008-07-01 20:00:00",21.8700008392,0.0,6.67999982834,10.6000003815,9.89999961853,97.9000015259,12.3800001144
"2008-07-01 21:00:00",20.7000007629,0.0,6.67999982834,10.6999998093,10.0,97.1999969482,11.6899995804
"2008-07-02 11:00:00",23.1200008392,0.0,6.36999988556,28.7999992371,7.90000009537,98.5,14.029999733
"2008-07-02 12:00:00",24.0300006866,0.0,6.38999986649,27.6000003815,8.10000038147,100.199996948,13.8999996185
"2008-07-02 13:00:00",25.5200004578,0.0,6.34999990463,30.2000007629,10.3999996185,106.0,13.8199996948
"2008-07-02 14:00:00",25.7099990845,0.0,6.38000011444,28.7999992371,15.8000001907,115.900001526,13.7899999619
"2008-07-02 15:00:00",25.3099994659,0.0,6.32000017166,32.2000007629,5.69999980927,99.9000015259,13.7600002289
"2008-07-02 16:00:00",24.3799991608,0.0,6.38999986649,28.0,6.40000009537,99.8000030518,12.970000267
"2008-07-02 17:00:00",23.9599990845,0.0,6.38000011444,28.5,6.0,98.1999969482,12.779999733
"2008-07-02 18:00:00",23.5100002289,0.0,6.57000017166,17.5,5.69999980927,98.5,12.6400003433
"2008-07-02 19:00:00",22.9300003052,0.0,6.69999980927,9.89999961853,6.40000009537,97.5,12.5600004196
"2008-07-02 20:00:00",22.1499996185,0.0,6.80000019073,3.70000004768,5.80000019073,89.4000015259,12.4399995804
"2008-07-02 21:00:00",21.5400009155,0.0,6.75,6.80000019073,6.59999990463,93.9000015259,11.8599996567
"2008-07-02 22:00:00",21.0100002289,0.0,6.84000015259,1.20000004768,5.40000009537,95.8000030518,11.470000267
"2008-07-03 11:00:00",23.4799995422,0.0,6.48000001907,22.3999996185,9.30000019073,97.4000015259,14.0200004578
"2008-07-03 12:00:00",25.2099990845,0.0,6.44999980927,24.6000003815,9.69999980927,99.1999969482,13.5100002289
"2008-07-03 13:00:00",26.1599998474,0.0,6.40000009537,27.7000007629,8.0,106.0,13.8000001907
"2008-07-03 14:00:00",25.3500003815,0.0,6.46999979019,23.3999996185,6.09999990463,100.099998474,12.9899997711
"2008-07-03 15:00:00",25.4300003052,0.0,6.36000013351,29.7999992371,5.09999990463,100.800003052,13.7600002289
"2008-07-03 16:00:00",25.7299995422,0.0,6.44999980927,24.2999992371,5.0,98.8000030518,13.7399997711
"2008-07-03 17:00:00",25.1100006104,0.0,6.51999998093,20.3999996185,10.1999998093,100.199996948,12.8000001907
"2008-07-03 18:00:00",24.1499996185,0.0,6.67000007629,11.6000003815,5.19999980927,97.5,12.6199998856
"2008-07-03 19:00:00",23.8999996185,0.0,6.75,6.80000019073,5.0,96.1999969482,12.5900001526
"2008-07-03 20:00:00",23.1900005341,0.0,6.84000015259,1.5,9.69999980927,95.5999984741,12.4600000381
"2008-07-03 21:00:00",22.7900009155,0.0,6.86000013351,0.300000011921,4.5,95.9000015259,12.029999733
"2008-07-03 22:00:00",22.4300003052,0.0,6.94999980927,-4.5,4.40000009537,94.3000030518,11.6300001144
"2008-07-04 11:00:00",24.8999996185,0.0,6.5,21.6000003815,5.0,99.6999969482,13.8599996567
"2008-07-04 12:00:00",26.4200000763,0.0,6.38000011444,28.5,5.19999980927,104.099998474,13.8299999237
"2008-07-04 13:00:00",27.5699996948,0.0,6.40999984741,27.1000003815,4.69999980927,107.0,13.6899995804
"2008-07-04 14:00:00",27.0799999237,0.0,6.44000005722,25.3999996185,4.90000009537,106.099998474,13.6999998093
"2008-07-04 15:00:00",26.1900005341,0.0,6.48000001907,23.0,4.09999990463,102.300003052,13.3599996567
"2008-07-04 16:00:00",26.2299995422,0.0,6.46000003815,23.7999992371,3.90000009537,100.599998474,13.720000267
"2008-07-04 17:00:00",25.8099994659,0.0,6.40999984741,26.7000007629,4.40000009537,99.9000015259,12.8599996567
"2008-07-04 18:00:00",25.4899997711,0.0,6.67999982834,11.3000001907,4.30000019073,96.5999984741,12.6700000763
"2008-07-04 19:00:00",24.8600006104,0.0,6.76000022888,6.19999980927,4.59999990463,96.5,12.5699996948
"2008-07-04 20:00:00",24.1700000763,0.0,6.86000013351,0.600000023842,3.70000004768,96.0,12.470000267
"2008-07-04 21:00:00",23.4099998474,0.0640000030398,7.78999996185,-53.4000015259,1688.0,103.699996948,12.1400003433
"2008-07-04 22:00:00",23.4400005341,0.0379999987781,7.36999988556,-29.3999996185,1707.0,103.699996948,11.7700004578
"2008-07-04 23:00:00",23.5300006866,0.0890000015497,7.55999994278,-40.0999984741,828.0,100.699996948,11.4799995422
"2008-07-05 10:00:00",22.6200008392,0.143999993801,7.88000011444,-58.7999992371,45.0999984741,97.5999984741,12.2299995422
"2008-07-05 11:00:00",22.7600002289,0.150999993086,7.94000005722,-62.0,37.0,99.3000030518,12.7700004578
"2008-07-05 12:00:00",22.9899997711,0.00200000009499,7.96000003815,-63.4000015259,33.4000015259,101.400001526,13.6599998474
"2008-07-05 13:00:00",23.2900009155,0.0010000000475,8.0,-65.8000030518,29.0,102.5,13.6899995804
"2008-07-05 14:00:00",23.4200000763,0.0010000000475,8.02000045776,-66.9000015259,25.3999996185,101.199996948,12.970000267
"2008-07-05 15:00:00",23.5400009155,0.0010000000475,8.02000045776,-67.0,22.6000003815,102.5,13.8999996185
"2008-07-05 16:00:00",23.8600006104,0.0010000000475,8.01000022888,-66.3000030518,20.6000003815,102.099998474,13.8999996185
"2008-07-05 17:00:00",23.2900009155,0.0010000000475,8.01000022888,-66.0999984741,19.2999992371,99.4000015259,12.6000003815
"2008-07-05 18:00:00",25.0499992371,0.0810000002384,7.61999988556,-43.9000015259,469.100006104,97.4000015259,12.720000267
"2008-07-05 19:00:00",24.6299991608,0.104000002146,7.55999994278,-40.2999992371,294.5,94.0999984741,12.5
"2008-07-05 20:00:00",24.1800003052,0.0759999975562,7.59999990463,-42.2999992371,151.800003052,92.9000015259,12.1800003052
"2008-07-05 21:00:00",24.5,0.118000000715,7.5,-37.0,132.0,95.5,11.7299995422
"2008-07-05 22:00:00",22.9200000763,0.0579999983311,7.26999998093,-23.6000003815,1698.0,101.900001526,11.470000267
"2008-07-06 11:00:00",22.6399993896,0.240999996662,7.73999977112,-50.5,61.7999992371,99.1999969482,12.8699998856
"2008-07-06 12:00:00",22.8500003815,0.246000006795,7.76000022888,-51.5,52.0,99.9000015259,13.8000001907
"2008-07-06 13:00:00",23.2399997711,0.231999993324,7.78999996185,-53.2999992371,51.0999984741,100.599998474,13.9300003052
"2008-07-06 14:00:00",23.7099990845,0.150999993086,7.80999994278,-54.5999984741,47.0999984741,100.900001526,13.8999996185
"2008-07-06 15:00:00",23.9500007629,0.148000001907,7.82000017166,-55.5999984741,45.2999992371,100.599998474,13.9200000763
"2008-07-06 16:00:00",24.0599994659,0.143000006676,7.84000015259,-56.2999992371,41.2000007629,100.0,13.8400001526
"2008-07-06 17:00:00",23.8999996185,0.143000006676,7.82000017166,-55.5,37.9000015259,98.9000015259,12.6999998093
"2008-07-06 18:00:00",23.7000007629,0.144999995828,7.80000019073,-54.4000015259,34.0,97.8000030518,12.5500001907
"2008-07-06 19:00:00",23.3199996948,0.153999999166,7.82000017166,-55.2999992371,32.0999984741,97.4000015259,12.4499998093
"2008-07-06 20:00:00",23.8299999237,0.150999993086,7.78999996185,-53.4000015259,83.1999969482,98.5999984741,12.1400003433
"2008-07-06 21:00:00",23.7800006866,0.0900000035763,7.55999994278,-40.4000015259,199.399993896,98.4000015259,11.7399997711
"2008-07-06 22:00:00",23.3799991608,0.130999997258,7.59999990463,-42.7000007629,88.0999984741,98.8000030518,11.4799995422
"2008-07-07 10:00:00",22.1100006104,0.00300000002608,7.86000013351,-57.5999984741,18.6000003815,101.300003052,12.8299999237
"2008-07-07 11:00:00",22.2900009155,0.00400000018999,7.88999986649,-58.9000015259,17.8999996185,101.400001526,13.9200000763
"2008-07-07 12:00:00",22.7900009155,0.170000001788,7.94000005722,-61.9000015259,18.7000007629,102.199996948,14.1300001144
"2008-07-07 13:00:00",23.2399997711,0.00300000002608,7.94000005722,-62.0,40.4000015259,103.099998474,13.9099998474
"2008-07-07 14:00:00",23.5499992371,0.00300000002608,7.94000005722,-62.5,109.5,103.199996948,13.9200000763
"2008-07-07 15:00:00",23.7099990845,0.00200000009499,7.92999982834,-61.5,130.899993896,101.0,13.9200000763
"2008-07-07 16:00:00",23.8799991608,0.00499999988824,7.92999982834,-61.7000007629,149.100006104,101.199996948,13.0
"2008-07-07 17:00:00",23.8799991608,0.00200000009499,7.94000005722,-62.0999984741,135.399993896,100.0,12.8299999237
"2008-07-07 18:00:00",23.6299991608,0.0010000000475,8.23999977112,-80.0,132.300003052,98.9000015259,12.6499996185
"2008-07-07 19:00:00",23.7000007629,0.0010000000475,8.18000030518,-76.4000015259,113.400001526,97.8000030518,12.5500001907
"2008-07-07 20:00:00",23.4500007629,0.0010000000475,8.13000011444,-73.3000030518,94.9000015259,97.0999984741,12.4099998474
"2008-07-07 21:00:00",23.1900005341,0.0010000000475,8.07999992371,-70.0999984741,89.0,97.3000030518,12.0100002289
"2008-07-07 22:00:00",23.0100002289,0.0010000000475,8.02000045776,-66.6999969482,75.0,97.1999969482,11.6999998093
"2008-07-07 23:00:00",22.8600006104,0.0010000000475,7.96999979019,-63.7000007629,49.5999984741,97.3000030518,11.4799995422
"2008-07-08 10:00:00",23.1100006104,0.0,7.67999982834,-47.2000007629,13.3999996185,101.300003052,12.5
"2008-07-08 11:00:00",23.9599990845,0.0,7.61999988556,-43.7999992371,12.1999998093,101.0,13.2399997711
"2008-07-08 12:00:00",25.0,0.0,7.51000022888,-37.5999984741,13.6999998093,101.400001526,13.8900003433
"2008-07-08 13:00:00",24.6000003815,0.0,7.44000005722,-33.2999992371,11.5,100.800003052,13.029999733
"2008-07-08 14:00:00",24.4300003052,0.0,7.42000007629,-32.0999984741,10.3999996185,99.9000015259,12.779999733
"2008-07-08 15:00:00",24.4400005341,0.0,7.36999988556,-29.0,12.5,100.5,13.9499998093
"2008-07-08 16:00:00",24.5799999237,0.0,7.30999994278,-25.6000003815,13.6999998093,101.199996948,13.0799999237
"2008-07-08 17:00:00",24.7399997711,0.0,7.21000003815,-19.8999996185,13.0,100.900001526,13.0500001907
"2008-07-08 18:00:00",24.4099998474,0.0,7.15999984741,-16.8999996185,16.3999996185,99.9000015259,12.6199998856
"2008-07-08 19:00:00",24.1800003052,0.0,7.19999980927,-19.5,13.8000001907,98.3000030518,12.5200004578
"2008-07-08 20:00:00",23.7700004578,0.0,7.21999979019,-20.3999996185,10.0,97.3000030518,12.3100004196
"2008-07-08 21:00:00",22.3500003815,0.0,7.17000007629,-17.7000007629,10.3000001907,97.8000030518,11.8900003433
"2008-07-08 22:00:00",22.6399993896,0.0010000000475,8.11999988556,-72.6999969482,24.5,98.5,11.6000003815
"2008-07-09 11:00:00",23.3299999237,0.0010000000475,7.42000007629,-32.2000007629,6.19999980927,103.800003052,13.1999998093
"2008-07-09 12:00:00",23.6599998474,0.0010000000475,7.30000019073,-25.0,6.69999980927,103.599998474,13.220000267
"2008-07-09 13:00:00",24.4500007629,0.0010000000475,7.19999980927,-19.5,6.5,102.900001526,13.220000267
"2008-07-09 14:00:00",25.2999992371,0.0010000000475,7.03000020981,-9.39999961853,6.09999990463,103.0,13.9499998093
"2008-07-09 15:00:00",25.4099998474,0.0010000000475,6.94000005722,-3.90000009537,7.69999980927,102.0,13.8400001526
"2008-07-09 16:00:00",25.3099994659,0.0,6.94999980927,-4.59999990463,22.6000003815,100.599998474,12.9399995804
"2008-07-09 17:00:00",25.5599994659,0.0,6.88000011444,-0.600000023842,25.6000003815,99.0999984741,12.7700004578
"2008-07-09 18:00:00",24.7399997711,0.0,6.98000001907,-6.30000019073,23.7000007629,97.0999984741,12.5100002289
"2008-07-09 19:00:00",24.8099994659,0.171000003815,7.92000007629,-61.2000007629,273.0,97.5,12.2600002289
"2008-07-09 20:00:00",24.7000007629,0.097000002861,7.59000015259,-42.2999992371,490.0,95.3000030518,11.8299999237
"2008-07-09 21:00:00",24.3999996185,0.105999998748,7.48000001907,-35.4000015259,171.199996948,93.3000030518,11.5600004196
"2008-07-10 11:00:00",23.5699996948,0.0010000000475,7.53000020981,-38.2000007629,13.3000001907,100.699996948,13.1099996567
"2008-07-10 12:00:00",24.75,0.0010000000475,7.38999986649,-30.2000007629,12.6999998093,102.599998474,14.0600004196
"2008-07-10 13:00:00",26.25,0.0,7.25,-22.2999992371,11.8000001907,102.300003052,13.8299999237
"2008-07-10 14:00:00",25.5300006866,0.0,6.94000005722,-3.90000009537,10.6999998093,100.400001526,12.8199996948
"2008-07-10 15:00:00",25.4799995422,0.0,6.76999998093,5.90000009537,10.1000003815,103.0,13.8999996185
"2008-07-10 16:00:00",25.3299999237,0.0,6.76999998093,5.80000019073,9.80000019073,101.0,13.8800001144
"2008-07-10 17:00:00",24.8500003815,0.0,6.78000020981,5.09999990463,9.19999980927,100.0,12.7700004578
"2008-07-10 18:00:00",24.3700008392,0.0,6.82999992371,2.5,9.39999961853,99.8000030518,12.6000003815
"2008-07-10 19:00:00",23.9400005341,0.0,6.88000011444,-0.899999976158,6.90000009537,97.4000015259,12.4600000381
"2008-07-10 20:00:00",23.5599994659,0.0,6.94000005722,-4.5,7.0,96.0999984741,12.1099996567
"2008-07-10 21:00:00",23.2900009155,0.0,6.98999977112,-6.90000009537,10.6000003815,94.0,11.7399997711
"2008-07-10 22:00:00",23.0400009155,0.0,7.01999998093,-8.89999961853,12.6000003815,95.4000015259,11.5100002289
"2008-07-11 11:00:00",23.9899997711,0.0,7.03000020981,-9.30000019073,5.59999990463,104.099998474,13.2899999619
"2008-07-11 12:00:00",24.1299991608,0.0,6.92000007629,-3.29999995232,5.5,103.5,12.8900003433
"2008-07-11 13:00:00",24.5,0.0,6.86000013351,0.40000000596,5.5,112.699996948,12.9300003052
"2008-07-11 14:00:00",27.2099990845,0.0,6.55999994278,18.2000007629,4.80000019073,113.699996948,13.8800001144
"2008-07-11 15:00:00",26.1200008392,0.0,6.51000022888,20.7999992371,4.5,111.800003052,13.8299999237
"2008-07-11 16:00:00",25.8400001526,0.0,6.55000019073,18.3999996185,4.90000009537,104.199996948,12.8900003433
"2008-07-11 17:00:00",25.4500007629,0.0,6.57999992371,16.6000003815,6.19999980927,104.400001526,12.7100000381
"2008-07-11 18:00:00",25.2800006866,0.0,6.69999980927,9.60000038147,4.40000009537,103.699996948,12.5699996948
"2008-07-11 19:00:00",25.0300006866,0.0,6.75,6.80000019073,4.40000009537,100.800003052,12.4600000381
"2008-07-11 20:00:00",24.3099994659,0.0,6.80000019073,3.79999995232,4.90000009537,98.0999984741,12.0799999237
"2008-07-11 21:00:00",23.6299991608,0.0,6.86000013351,0.600000023842,4.80000019073,95.1999969482,11.7299995422
"2008-07-11 22:00:00",23.2199993134,0.0,6.90999984741,-2.29999995232,4.30000019073,93.6999969482,11.5
"2008-07-12 11:00:00",25.2700004578,0.0,6.88999986649,-1.5,3.5,121.0,14.0200004578
"2008-07-12 12:00:00",27.0200004578,0.0,6.46999979019,23.2000007629,3.29999995232,123.5,13.7899999619
"2008-07-12 13:00:00",27.5699996948,0.0,6.46000003815,24.2000007629,3.0,123.0,13.8800001144
"2008-07-12 14:00:00",27.3899993896,0.0,6.32000017166,32.4000015259,2.79999995232,118.099998474,13.8100004196
"2008-07-12 15:00:00",26.5699996948,0.0,6.34000015259,30.7999992371,3.09999990463,114.0,13.8100004196
"2008-07-12 16:00:00",25.7999992371,0.0,6.42000007629,26.2999992371,3.79999995232,106.0,12.7899999619
"2008-07-12 17:00:00",25.5100002289,0.0,6.44000005722,25.2000007629,3.20000004768,106.699996948,12.7700004578
"2008-07-12 18:00:00",25.1800003052,0.0,6.67000007629,11.8000001907,3.29999995232,105.199996948,12.6300001144
"2008-07-12 19:00:00",24.9899997711,0.0,6.78000020981,5.0,2.90000009537,99.3000030518,12.529999733
"2008-07-12 20:00:00",24.1800003052,0.0,6.80999994278,3.40000009537,3.0,93.4000015259,12.2600002289
"2008-07-12 21:00:00",23.5900001526,0.0,6.84000015259,1.60000002384,3.0,86.1999969482,11.8999996185
"2008-07-12 22:00:00",23.0799999237,0.0,6.86999988556,-0.20000000298,3.29999995232,95.4000015259,11.5900001526
"2008-07-13 11:00:00",25.5400009155,0.0,6.55999994278,18.0,2.90000009537,133.300003052,14.0200004578
"2008-07-13 12:00:00",27.1700000763,0.0,6.30999994278,33.0999984741,2.59999990463,140.699996948,13.9200000763
"2008-07-13 13:00:00",28.2099990845,0.0,6.34999990463,30.8999996185,2.5,130.300003052,13.7100000381
"2008-07-13 14:00:00",28.2700004578,0.0,6.28000020981,34.9000015259,2.40000009537,123.199996948,13.6700000763
"2008-07-13 15:00:00",27.2600002289,0.0,6.28999996185,34.2000007629,2.5,117.800003052,13.7299995422
"2008-07-13 16:00:00",26.7600002289,0.0,6.32000017166,31.8999996185,2.29999995232,118.400001526,13.4099998474
"2008-07-13 17:00:00",26.5400009155,0.0,6.32999992371,31.5,3.5,115.099998474,12.779999733
"2008-07-13 18:00:00",26.0900001526,0.0,6.40999984741,27.0,2.79999995232,106.599998474,12.6199998856
"2008-07-13 19:00:00",25.2900009155,0.0,6.53000020981,19.5,2.29999995232,97.4000015259,12.5100002289
"2008-07-13 20:00:00",24.4099998474,0.0,6.69000005722,10.3000001907,2.29999995232,91.6999969482,12.2700004578
"2008-07-13 21:00:00",24.6700000763,0.0,6.51999998093,20.2000007629,2.29999995232,89.8000030518,11.9099998474
"2008-07-13 22:00:00",24.1700000763,0.0,6.57999992371,16.8999996185,2.5,90.8000030518,11.6099996567
"2008-07-13 23:00:00",23.7000007629,0.0,6.67999982834,11.1000003815,2.70000004768,95.0999984741,11.4300003052
"2008-07-14 15:00:00",23.2000007629,0.0010000000475,7.71000003815,-48.7999992371,104.0,96.3000030518,13.3100004196
"2008-07-14 16:00:00",22.8400001526,0.0010000000475,8.02000045776,-66.8000030518,64.0,97.8000030518,12.7899999619
"2008-07-14 17:00:00",23.1100006104,0.0010000000475,7.92000007629,-61.0999984741,79.4000015259,96.3000030518,12.6199998856
"2008-07-14 18:00:00",22.8500003815,0.0010000000475,7.63000011444,-44.2000007629,65.0,93.8000030518,12.220000267
"2008-07-14 19:00:00",22.6700000763,0.0010000000475,7.36000013351,-28.2999992371,33.0999984741,89.6999969482,11.779999733
"2008-07-14 20:00:00",22.5300006866,0.0010000000475,7.13000011444,-15.3000001907,21.7999992371,89.5,11.5
"2008-07-15 11:00:00",24.4799995422,0.0,6.65000009537,12.5,4.19999980927,120.400001526,14.0600004196
"2008-07-15 12:00:00",27.3899993896,0.0,6.36999988556,29.5,4.0,126.5,13.7899999619
"2008-07-15 13:00:00",27.8400001526,0.0,6.05999994278,47.7999992371,4.40000009537,125.099998474,13.7399997711
"2008-07-15 14:00:00",27.5400009155,0.0,5.94999980927,54.0999984741,4.90000009537,112.5,13.779999733
"2008-07-15 15:00:00",25.4899997711,0.0,5.94999980927,53.4000015259,3.29999995232,105.099998474,13.0900001526
"2008-07-15 16:00:00",25.2000007629,0.0,5.98999977112,51.0,3.79999995232,96.5999984741,13.779999733
"2008-07-15 17:00:00",25.2399997711,0.0,6.13000011444,43.2000007629,3.70000004768,97.3000030518,12.7299995422
"2008-07-15 18:00:00",24.2199993134,0.0,6.09999990463,44.5,4.19999980927,95.9000015259,12.5799999237
"2008-07-15 19:00:00",23.6700000763,0.0,6.17999982834,39.7000007629,3.70000004768,90.8000030518,12.470000267
"2008-07-15 20:00:00",23.1399993896,0.0,6.34000015259,30.7000007629,3.5,80.8000030518,12.1700000763
"2008-07-15 21:00:00",22.4500007629,0.0,6.40999984741,26.3999996185,3.20000004768,67.3000030518,11.7899999619
"2008-07-15 22:00:00",21.9200000763,0.0,6.48000001907,22.5,3.5,88.5999984741,11.5200004578
"2008-07-16 11:00:00",24.3500003815,0.0,6.13000011444,42.7000007629,9.80000019073,128.699996948,13.8800001144
"2008-07-16 12:00:00",26.2299995422,0.0,6.03000020981,49.4000015259,7.80000019073,131.899993896,13.8100004196
"2008-07-16 13:00:00",27.0699996948,0.0,5.96999979019,52.7000007629,5.09999990463,134.199996948,13.8999996185
"2008-07-16 14:00:00",28.1700000763,0.0,5.92999982834,55.2999992371,7.0,130.0,13.8199996948
"2008-07-16 15:00:00",26.2199993134,0.0,5.96999979019,52.4000015259,4.09999990463,125.099998474,13.7700004578
"2008-07-16 16:00:00",25.6800003052,0.0,6.03000020981,48.7999992371,5.90000009537,107.699996948,13.7899999619
"2008-07-16 17:00:00",25.2000007629,0.0,6.09999990463,44.5999984741,7.5,96.9000015259,12.6700000763
"2008-07-16 18:00:00",24.5400009155,0.0,6.21999979019,37.7000007629,5.09999990463,98.8000030518,12.5699996948
"2008-07-16 19:00:00",24.2099990845,0.0,6.32999992371,31.2000007629,8.10000038147,87.0999984741,12.470000267
"2008-07-16 20:00:00",23.2800006866,0.0,6.36999988556,29.0,5.40000009537,88.4000015259,12.1800003052
"2008-07-16 21:00:00",22.5300006866,0.0,6.48999977112,21.6000003815,5.19999980927,85.5999984741,11.7899999619
"2008-07-16 22:00:00",21.8500003815,0.0,6.55999994278,17.6000003815,3.79999995232,75.5,11.529999733
"2008-07-17 11:00:00",24.6000003815,0.0,6.23000001907,37.0,2.29999995232,122.199996948,14.0600004196
"2008-07-17 12:00:00",27.1000003815,0.0,6.07999992371,46.2000007629,2.29999995232,146.600006104,13.7899999619
"2008-07-17 13:00:00",28.1599998474,0.0,5.98000001907,52.0999984741,2.29999995232,145.100006104,13.8599996567
"2008-07-17 14:00:00",28.1599998474,0.0,6.01999998093,50.0,2.29999995232,125.199996948,13.779999733
"2008-07-17 15:00:00",27.2700004578,0.0,6.03000020981,49.5999984741,2.20000004768,109.599998474,12.9799995422
"2008-07-17 16:00:00",25.6900005341,0.0,6.03000020981,49.2999992371,2.09999990463,95.6999969482,12.7700004578
"2008-07-17 17:00:00",25.1800003052,0.0,6.05000019073,47.5999984741,2.40000009537,101.300003052,12.6599998474
"2008-07-17 18:00:00",24.9300003052,0.0,6.17000007629,40.5999984741,2.5,99.0999984741,12.5600004196
"2008-07-17 19:00:00",24.2099990845,0.0,6.28999996185,33.7999992371,2.29999995232,88.0,12.4499998093
"2008-07-17 20:00:00",23.3700008392,0.0,6.40000009537,27.2999992371,2.29999995232,71.8000030518,12.1199998856
"2008-07-17 21:00:00",22.7299995422,0.0,6.46999979019,22.7000007629,2.5,76.8000030518,11.720000267
"2008-07-17 22:00:00",22.0100002289,0.0,6.48000001907,22.3999996185,2.29999995232,78.5999984741,11.470000267
"2008-07-18 11:00:00",24.0699996948,0.0,6.61999988556,14.3000001907,12.0,108.599998474,14.0399999619
"2008-07-18 12:00:00",27.5900001526,0.0,6.19999980927,39.7000007629,9.0,131.5,13.75
"2008-07-18 13:00:00",28.9799995422,0.0,6.15000009537,42.2999992371,7.59999990463,137.0,13.8699998856
"2008-07-18 14:00:00",28.4799995422,0.0,6.01999998093,50.2000007629,5.90000009537,143.300003052,13.7299995422
"2008-07-18 15:00:00",26.7700004578,0.0,6.09000015259,45.7999992371,5.5,130.100006104,12.970000267
"2008-07-18 16:00:00",26.0200004578,0.0,6.13999986649,42.7999992371,4.5,107.400001526,12.7399997711
"2008-07-18 17:00:00",25.4599990845,0.0,6.15999984741,41.2000007629,4.09999990463,91.0,12.6899995804
"2008-07-18 18:00:00",25.3700008392,0.0,6.26999998093,35.0999984741,4.0,85.5999984741,12.5699996948
"2008-07-18 19:00:00",23.9699993134,0.0,6.51999998093,19.8999996185,3.5,82.3000030518,12.4499998093
"2008-07-18 20:00:00",23.6299991608,0.0,6.65999984741,11.8999996185,3.90000009537,76.0999984741,12.1400003433
"2008-07-18 21:00:00",23.1499996185,0.0,6.73000001907,8.10000038147,4.40000009537,63.7999992371,11.7399997711
"2008-07-18 22:00:00",22.8199996948,0.0,6.76999998093,5.69999980927,14.8000001907,88.9000015259,11.4899997711
"2008-07-19 10:00:00",22.8199996948,0.0,6.76999998093,5.69999980927,14.8000001907,88.9000015259,12.6899995804
"2008-07-19 11:00:00",24.6700000763,0.0,6.82000017166,2.90000009537,4.0,124.300003052,13.7100000381
"2008-07-19 12:00:00",26.8299999237,0.0,6.48000001907,23.1000003815,4.30000019073,172.5,13.9600000381
"2008-07-19 13:00:00",26.8099994659,0.0,6.36000013351,29.8999996185,3.90000009537,167.800003052,13.7899999619
"2008-07-19 14:00:00",29.1100006104,0.0,6.34000015259,31.3999996185,4.0,161.100006104,13.8299999237
"2008-07-19 15:00:00",27.7199993134,0.0,6.25,36.5999984741,3.70000004768,136.899993896,12.8800001144
"2008-07-19 16:00:00",25.8400001526,0.0,6.5,21.3999996185,3.59999990463,124.199996948,12.5500001907